Location: Brantley
(31.5822°N, 86.2569°W)
Time: 02:17:32
(UTC+00:00)

Vanguard 2 - Pass Details

Date: 23 February 2026
Orbit: 553 x 2896 km, 32.9° (Epoch: 13 March)

Event Time Altitude Azimuth Distance (km) Brightness Sun altitude
Rises 09:10:35 0° 243° (WSW) 5,508 - -40.5°
Reaches altitude 10° 09:14:52 10° 241° (WSW) 4,126 - -39.7°
Maximum altitude 09:24:53 65° 162° (SSE) 1,292 - -37.6°
Exits shadow 09:26:36 50° 107° (ESE) 1,360 8.9 -37.2°
Drops below altitude 10° 09:30:51 10° 81° (E) 2,522 10.9 -36.3°
Sets 09:32:54 0° 78° (ENE) 3,267 11.8 -35.9°
